Torna al catalogo

FENGYUN 1C DEB

AttivoPO
NORAD 33718·DEBRIS·🇨🇳 China

Lanciato May 10, 1999 da Taiyuan Satellite Launch Center

Loading…

Prossimi Passaggi (prossime 24 ore)

TLE

AggiornatoSource: Space-Track

Epoca: Sep 13, 2026, 14:18 UTC

1 33718U 99025DHF 26256.59644367  .00002049  00000-0  11548-2 0  9998
2 33718  99.6634   7.6582 0096464 285.0215  74.0292 14.09321946730565

Traccia FENGYUN 1C DEB in tempo reale con AllMySat

Download on the App Store